This demonstration page uses our WeatherBlox Daily Observations layout. Learn more.

Left ArrowRight Arrow

38.88101, -77.10428

Hourly Observations for August 7, 2020

Temp ( °F °C ) Dew Point ( °F °C ) Humidity (%) Winds ( mph kmh ) Pressure ( in mb ) Visibility ( mi km ) Precip ( " mm )
12:52 am 00:52 Cloudy 75 23.9 70 21.1 84 84 Calm 30.07 1018 10 16.0934 0 0
1:19 am 01:19 Cloudy 75 23.9 70 21.1 84 84 WSW 3 6 30.07 1018 10 16.0934 0 0
1:52 am 01:52 Cloudy 75 23.9 70 21.1 84 84 Calm 30.06 1018 10 16.0934 0 0
2:52 am 02:52 Cloudy 75 23.9 70 21.1 84 84 Calm 30.06 1018 10 16.0934 0 0
3:10 am 03:10 Cloudy 76 24.4 70 21.1 82 82 Calm 30.06 1018 10 16.0934 0 0
3:52 am 03:52 Cloudy 75 23.9 69 20.6 82 82 Calm 30.05 1018 10 16.0934 0 0
4:52 am 04:52 Cloudy 74 23.3 70 21.1 88 88 SE 5 7 30.06 1018 10 16.0934 0 0
5:52 am 05:52 Mostly Cloudy with Light Rain 75 23.9 71 21.7 88 88 SE 3 6 30.08 1019 10 16.0934 0.001 0.001
6:52 am 06:52 Mostly Cloudy 74 23.3 70 21.1 88 88 SSE 3 6 30.08 1019 10 16.0934 0 0
7:52 am 07:52 Mostly Cloudy 76 24.4 70 21.1 82 82 Calm 30.09 1019 10 16.0934 0 0
8:52 am 08:52 Mostly Cloudy 77 25 70 21.1 79 79 S 5 7 30.1 1019 10 16.0934 0 0
9:52 am 09:52 Partly Cloudy 78 25.6 71 21.7 79 79 S 3 6 30.11 1020 10 16.0934 0 0
10:52 am 10:52 Mostly Cloudy 79 26.1 69 20.6 72 72 S 8 13 30.11 1020 10 16.0934 0 0
11:52 am 11:52 Mostly Cloudy 82 27.8 71 21.7 69 69 S 7 11 30.1 1019 10 16.0934 0 0
12:52 pm 12:52 Partly Cloudy 83 28.3 71 21.7 67 67 S 9 15 30.09 1019 10 16.0934 0 0
1:52 pm 13:52 Mostly Cloudy 83 28.3 71 21.7 67 67 S 12 19 30.07 1018 10 16.0934 0 0
2:52 pm 14:52 Partly Cloudy 85 29.4 73 22.8 68 68 SSE 10 17 30.06 1018 10 16.0934 0 0
3:52 pm 15:52 Partly Cloudy 86 30 70 21.1 59 59 S 7 11 30.05 1018 10 16.0934 0 0
4:52 pm 16:52 Partly Cloudy 86 30 72 22.2 63 63 S 13 20 30.02 1017 10 16.0934 0 0
5:52 pm 17:52 Mostly Cloudy 85 29.4 70 21.1 61 61 S 8 13 30.03 1017 10 16.0934 0 0
6:52 pm 18:52 Mostly Cloudy 84 28.9 72 22.2 67 67 SSW 7 11 30.04 1017 10 16.0934 0 0
7:52 pm 19:52 Mostly Cloudy 83 28.3 70 21.1 65 65 SW 9 15 30.05 1018 10 16.0934 0 0
8:52 pm 20:52 Cloudy 82 27.8 74 23.3 77 77 S 7 11 30.06 1018 10 16.0934 0 0
9:13 pm 21:13 Cloudy with Heavy Rain 77 25 72 22.2 85 85 NE 12 19 30.07 1018 2.5 4.02335 0.03 0.762
9:19 pm 21:19 Cloudy with Heavy Rain 74 23.3 71 21.7 91 91 NE 18 30 30.09 1019 5 8.0467 0.27 6.858
9:47 pm 21:47 Cloudy with Nearby Thunderstorms 73 23 72 22 94 94 NE 15 24 30.09 1019 6 9.65604 0.29 7.366
9:52 pm 21:52 Cloudy with Nearby Thunderstorms 74 23.3 71 21.7 91 91 NE 12 19 30.1 1019 9 14.48406 0.3 7.62
10:06 pm 22:06 Cloudy 74 23.3 71 21.7 91 91 NE 12 19 30.11 1020 10 16.0934 0.001 0.001
10:11 pm 22:11 Cloudy with Thunderstorms 74 23.3 71 21.7 91 91 NE 8 13 30.11 1020 10 16.0934 0.001 0.001
10:18 pm 22:18 Cloudy with Light Thunderstorms 74 23.3 71 21.7 91 91 NE 7 11 30.11 1020 10 16.0934 0.001 0.001
10:24 pm 22:24 Cloudy 74 23.3 71 21.7 91 91 NE 6 9 30.12 1020 10 16.0934 0.001 0.001
10:34 pm 22:34 Cloudy with Nearby Thunderstorms 75 23.9 71 21.7 88 88 ENE 10 17 30.12 1020 10 16.0934 0.001 0.001
10:44 pm 22:44 Cloudy 74 23.3 71 21.7 91 91 ENE 9 15 30.12 1020 10 16.0934 0.001 0.001
10:46 pm 22:46 Cloudy 73 23 72 22 94 94 ENE 10 17 30.12 1020 10 16.0934 0.001 0.001
10:52 pm 22:52 Cloudy 74 23.3 71 21.7 91 91 NE 7 11 30.12 1020 10 16.0934 0.001 0.001
11:14 pm 23:14 Cloudy 74 23.3 71 21.7 91 91 ENE 6 9 30.13 1020 10 16.0934 0 0
11:39 pm 23:39 Cloudy 74 23.3 71 21.7 91 91 ENE 6 9 30.12 1020 10 16.0934 0 0
11:52 pm 23:52 Cloudy 74 23.3 71 21.7 91 91 E 6 9 30.12 1020 10 16.0934 0 0

Powered by AerisWeather